Flag for U.S.A. Weather past 2 weeks in Lexington, North Carolina, U.S.A.

Now
40 °F

Clear.


Feels Like: 40 °F
Forecast: 41 / 63 °F
Wind: No wind

Location: Davidson County Airport

Current Time: Oct 23, 2014 at 7:46:31 AM

Latest Report: Oct 23, 2014 at 7:15 AM


Visibility: 10 mi

Pressure: 30.05 "Hg

Humidity: 93%

Dew point: 38 °F

Location of LexingtonLocation

Historic Weather in Lexington — Graph

°F

Lexington temperature yesterday

Maximum temperature yesterday: 65 °F (at 3:15 PM)
Minimum temperature yesterday: 42 °F (at 4:35 AM)
Average temperature yesterday: 52 °F

Past Weeks' High & Low Weather Summary

 TemperatureHumidityPressure
High84 °F (Oct 10, 3:15 PM)99% (Oct 11, 1:35 AM)30.27 "Hg (Oct 11, 1:35 AM)
Low37 °F (Oct 20, 7:35 AM)34% (Oct 8, 5:55 PM)29.78 "Hg (Oct 16, 4:15 AM)
Average61 °F77%30.00 "Hg
* Reported Oct 8 6:15 AM — Oct 23 6:55 AM, Lexington, Weather by CustomWeather, © 2014

Note: Actual official high and low records may vary slightly from our data, if they occured in-between our weather recording intervals... More about our weather records

Advertising

Lexington weather history for previous 24 hours

 ConditionsComfort  
Time TempWeatherWind HumidityBarometerVisibility
6:55 AM
Oct 23
41 °FClear.No wind89%30.06 "Hg10 mi
6:35 AM40 °FClear.No wind93%30.05 "Hg10 mi
6:15 AM40 °FClear.No wind94%30.06 "Hg10 mi
5:55 AM40 °FClear.No wind93%30.05 "Hg10 mi
5:35 AM41 °FClear.No wind92%30.05 "Hg10 mi
5:15 AM41 °FClear.No wind91%30.04 "Hg10 mi
4:55 AM41 °FClear.No wind91%30.04 "Hg10 mi
4:35 AM42 °FClear.No wind88%30.04 "Hg10 mi
4:15 AM43 °FClear.No wind85%30.04 "Hg10 mi
3:55 AM41 °FClear.No wind89%30.04 "Hg10 mi
3:35 AM42 °FClear.No wind90%30.04 "Hg10 mi
3:15 AM42 °FClear.No wind90%30.05 "Hg10 mi
2:55 AM42 °FClear.3 mph88%30.05 "Hg10 mi
2:35 AM43 °FClear.No wind86%30.06 "Hg10 mi
2:15 AM43 °FClear.No wind87%30.07 "Hg10 mi
1:55 AM43 °FClear.No wind86%30.07 "Hg10 mi
1:35 AM41 °FClear.No wind91%30.06 "Hg10 mi
1:15 AM43 °FClear.No wind86%30.06 "Hg10 mi
12:55 AM44 °FClear.No wind84%30.07 "Hg10 mi
12:15 AM44 °FClear.No wind84%30.07 "Hg10 mi
11:55 PM
Oct 22
45 °FClear.No wind79%30.08 "Hg10 mi
11:15 PM47 °FClear.No wind75%30.08 "Hg10 mi
10:55 PM47 °FClear.No wind74%30.08 "Hg10 mi
10:35 PM47 °FClear.No wind74%30.08 "Hg10 mi
10:15 PM48 °FClear.No wind72%30.08 "Hg10 mi
9:55 PM49 °FClear.No wind68%30.08 "Hg10 mi
9:35 PM50 °FClear.3 mph65%30.07 "Hg10 mi
9:15 PM51 °FClear.5 mph64%30.06 "Hg10 mi
8:55 PM51 °FClear.3 mph62%30.07 "Hg10 mi
8:15 PM53 °FClear.5 mph59%30.06 "Hg10 mi
7:55 PM53 °FClear.5 mph59%30.06 "Hg10 mi
7:35 PM54 °FSunny.No wind56%30.06 "Hg10 mi
7:15 PM54 °FSunny.3 mph56%30.06 "Hg10 mi
6:55 PM55 °FSunny.5 mph54%30.06 "Hg10 mi
6:35 PM56 °FSunny.7 mph52%30.05 "Hg10 mi
6:15 PM56 °FSunny.5 mph52%30.06 "Hg10 mi
5:55 PM58 °FSunny.8 mph50%30.05 "Hg10 mi
5:15 PM61 °FScattered clouds.5 mph46%30.04 "Hg10 mi
4:55 PM62 °FScattered clouds.7 mph43%30.04 "Hg10 mi
4:35 PM63 °FScattered clouds.3 mph43%30.04 "Hg10 mi
4:15 PM62 °FPartly sunny.6 mph44%30.04 "Hg10 mi
3:55 PM61 °FPartly sunny.8 mph46%30.04 "Hg10 mi
3:35 PM62 °FScattered clouds.3 mph45%30.03 "Hg10 mi
3:15 PM65 °FPartly sunny.5 mph40%30.03 "Hg10 mi
2:55 PM64 °FScattered clouds.3 mph41%30.03 "Hg10 mi
2:35 PM64 °FSunny.3 mph42%30.03 "Hg10 mi
2:15 PM64 °FSunny.6 mph42%30.03 "Hg10 mi
1:55 PM63 °FSunny.7 mph43%30.03 "Hg10 mi
1:15 PM63 °FSunny.3 mph44%30.04 "Hg10 mi
12:55 PM62 °FSunny.6 mph44%30.05 "Hg10 mi
12:15 PM61 °FSunny.6 mph44%30.06 "Hg10 mi
11:55 AM60 °FSunny.6 mph46%30.05 "Hg10 mi
11:35 AM59 °FSunny.5 mph47%30.05 "Hg10 mi
11:15 AM58 °FSunny.6 mph48%30.05 "Hg10 mi
10:15 AM54 °FSunny.6 mph54%30.06 "Hg10 mi
9:55 AM53 °FSunny.7 mph57%30.06 "Hg10 mi
9:35 AM52 °FSunny.3 mph61%30.06 "Hg10 mi
9:15 AM50 °FSunny.No wind64%30.06 "Hg10 mi
8:55 AM48 °FSunny.No wind70%30.06 "Hg10 mi
8:35 AM47 °FSunny.No wind74%30.05 "Hg10 mi
8:15 AM45 °FClear.No wind80%30.04 "Hg10 mi
7:55 AM44 °FClear.No wind80%30.04 "Hg10 mi
7:35 AM43 °FClear.No wind83%30.03 "Hg10 mi
7:15 AM42 °FClear.No wind86%30.02 "Hg10 mi
Weather by CustomWeather, © 2014

See weather overviewHow to use our weather pages